Weather observations for the past three days for
Pella, Pella Municipal Airport
Imperial (Metric)
Date Time (cdt) Wind (mph) Vis. (mi.) Weather Sky Cond. Temperature (ºF) Relative Humidity Wind Chill (°F) Heat Index (°F) Pressure Precipitation (in)
Air Dwpt 6 hour altimeter (in) sea level (mb) 1 hr 3 hr 6 hr
Max. Min.
22 12:35 NE 3 10.00 Fair CLR 78.4 66 66% 80 30.07 0.0
22 12:15 Calm 10.00 Fair CLR 77.5 66.7 69% 79 30.08 0.0
22 11:55 Calm 10.00 Fair CLR 77.9 67.1 70% 80 30.08 0.0
22 11:35 NW 5 10.00 Fair CLR 79.2 67.1 67% 81 30.08 0.0
22 11:15 Calm 10.00 Fair CLR 77.9 67.3 70% 80 30.09 0.0
22 10:55 NW 7 10.00 Fair CLR 77.4 67.8 73% 79 30.09 0.0
22 10:35 Calm 10.00 Partly Cloudy SCT120 75.9 66.2 72% 77 30.09 0.0
22 10:15 Calm 10.00 Partly Cloudy SCT120 76.1 67.5 75% 78 30.09 0.0
22 09:55 NW 3 10.00 Fair CLR 73.8 66.9 79% 30.09 0.0
22 09:35 Calm 10.00 Fair CLR 73.2 66.9 81% 30.09 0.0
22 09:15 Calm 10.00 Fair CLR 72 66 82% 30.09 0.0
22 08:55 NW 3 10.00 Fair CLR 70.3 65.8 86% 30.09 0.0
22 08:35 Calm 10.00 Fair CLR 69.1 65.7 89% 30.09 0.0
22 08:15 Calm 10.00 Fair CLR 67.6 65.1 92% 30.09 0.0
22 07:55 Calm 10.00 Fair CLR 65.8 64 94% 30.09 0.0
22 07:35 Calm 7.00 Fog/Mist CLR 64.9 63.7 96% 30.08 0.0
22 07:15 Calm 7.00 Fog/Mist CLR 63.5 62.8 98% 30.08 0.0
22 06:55 Calm 10.00 Partly Cloudy SCT043 63.1 62.2 64.6 59.9 97% 30.08 0.0
22 06:35 Calm 7.00 Fog/Mist SCT043 62.1 61.3 98% 30.08 0.0
22 06:15 Calm 10.00 Partly Cloudy SCT043 62.4 61.5 97% 30.08 0.0
22 05:55 Calm 10.00 Partly Cloudy SCT044 61.9 61.2 98% 30.08 0.0
22 05:35 Calm 7.00 Fog/Mist BKN044 60.8 60.3 98% 30.08 0.0
22 05:15 Calm 7.00 Fog/Mist SCT040 61.2 60.6 98% 30.08 0.0
22 04:55 Calm 10.00 Partly Cloudy SCT040 61.3 60.8 98% 30.07 0.0
22 04:35 Calm 7.00 Fair CLR 61.2 60.6 98% 30.07 0.0
22 04:15 Calm 10.00 Fair CLR 61.2 60.6 98% 30.07 0.0
22 03:55 Calm 7.00 Fair CLR 61.5 60.8 98% 30.07 0.0
22 03:35 Calm 10.00 Fair CLR 62.6 61.7 97% 30.08 0.0
22 03:15 Calm 10.00 Fair CLR 62.4 61.2 96% 30.09 0.0
22 02:55 NE 3 10.00 Fair CLR 63 62.1 97% 30.08 0.0
22 02:35 Calm 10.00 Fair CLR 62.2 61.2 96% 30.08 0.0
22 02:15 Calm 10.00 Fair CLR 64 62.2 94% 30.08 0.0
22 01:55 W 3 10.00 Fair CLR 63.5 61.7 94% 30.09 0.0
22 01:35 Calm 10.00 Fair CLR 64 62.1 93% 30.09 0.0
22 01:15 Calm 10.00 Fair CLR 63.9 62.1 94% 30.09 0.0
22 00:55 Calm 10.00 Fair CLR 64.2 62.4 75.6 64.2 94% 30.1 0.0
22 00:35 Calm 10.00 Fair CLR 65.7 63 91% 30.1 0.0
22 00:15 Calm 10.00 Fair CLR 66 63.3 91% 30.11 0.0
21 23:55 Calm 10.00 Partly Cloudy SCT110 66.6 62.8 88% 30.11 0.0
21 23:35 Calm 10.00 Mostly Cloudy SCT044 SCT050 BKN110 67.8 62.8 84% 30.12 0.0
21 23:15 Calm 10.00 Mostly Cloudy BKN044 BKN055 BKN100 66 63.3 91% 30.12 0.0
21 22:55 Calm 10.00 Mostly Cloudy BKN100 66.2 63 89% 30.11 0.0
21 22:35 Calm 10.00 Partly Cloudy SCT090 67.1 63 87% 30.11 0.0
21 22:15 Calm 10.00 Fair CLR 66.9 63.5 89% 30.11 0.0
21 21:55 Calm 10.00 Partly Cloudy SCT110 67.8 63.9 87% 30.11 0.0
21 21:35 Calm 10.00 Mostly Cloudy BKN110 67.6 64 88% 30.11 0.0
21 21:15 Calm 10.00 Fair CLR 69.6 63.1 80% 30.1 0.0
21 20:55 Calm 10.00 Partly Cloudy SCT100 70.2 63.5 80% 30.09 0.0
21 20:35 Calm 10.00 Mostly Cloudy BKN100 72.3 64.6 77% 30.09 0.0
21 20:15 Calm 10.00 Mostly Cloudy BKN090 BKN110 73.6 66.7 79% 30.09 0.0
21 19:55 Calm 10.00 Mostly Cloudy BKN080 74.5 65.8 75% 30.09 0.0
21 19:35 Calm 10.00 Partly Cloudy SCT100 75 66.4 75% 76 30.08 0.0
21 19:15 Calm 10.00 Partly Cloudy SCT100 75.4 66 73% 77 30.08 0.0
21 18:55 Calm 10.00 Partly Cloudy SCT100 72.9 66.9 81 72.7 82% 30.08 0.0
21 18:35 Calm 10.00 Mostly Cloudy SCT049 SCT075 BKN100 74.7 65.5 73% 30.08 0.0
21 18:15 S 3 10.00 Overcast BKN047 BKN065 OVC085 74.8 63.7 68% 30.08 0.0
21 17:55 SE 9 10.00 Mostly Cloudy BKN047 78.1 64.4 63% 80 30.08 0.0
21 17:35 Calm 10.00 Partly Cloudy SCT049 79.2 61 54% 80 30.09 0.0
21 17:15 N 3 10.00 Fair CLR 79.5 63.9 59% 81 30.09 0.0
21 16:55 N 3 10.00 Partly Cloudy SCT090 79 61 54% 80 30.09 0.0
21 16:35 NE 3 10.00 Partly Cloudy SCT090 80.4 62.6 55% 82 30.1 0.0
21 16:15 Calm 10.00 Partly Cloudy SCT046 SCT090 78.8 62.8 58% 80 30.11 0.0
21 15:55 N 8 10.00 Mostly Cloudy BKN046 BKN060 79.3 63.9 59% 81 30.11 0.0
21 15:35 NW 3 10.00 Mostly Cloudy SCT046 BKN060 BKN090 79.3 63.1 58% 81 30.12 0.0
21 15:15 Calm 10.00 Partly Cloudy SCT060 SCT085 79.5 61.9 55% 81 30.13 0.0
21 14:55 N 3 10.00 Mostly Cloudy SCT060 BKN085 78.8 63.3 59% 80 30.13 0.0
21 14:35 Calm 10.00 Mostly Cloudy SCT046 SCT050 BKN085 79 63.7 60% 81 30.14 0.0
21 14:15 NW 3 10.00 Overcast SCT046 BKN050 OVC080 76.3 62.4 62% 78 30.14 0.0
21 13:55 Calm 10.00 Overcast SCT050 BKN070 OVC080 76.5 63.3 64% 78 30.15 0.0
21 13:35 Calm 10.00 Mostly Cloudy SCT036 BKN049 BKN060 77.5 63.5 62% 79 30.15 0.0
21 13:15 Calm 10.00 Mostly Cloudy SCT036 BKN047 BKN070 76.6 63.1 63% 78 30.15 0.0
21 12:55 Calm 10.00 Mostly Cloudy SCT034 SCT049 BKN065 76.8 63 77.4 63.5 62% 79 30.15 0.0
21 12:35 NW 5 10.00 Partly Cloudy SCT032 SCT055 76.8 64 65% 79 30.15 0.0
21 12:15 Calm 10.00 Fair CLR 76.1 62.4 63% 78 30.16 0.0
21 11:55 Calm 10.00 Partly Cloudy SCT026 SCT033 75.9 63.5 66% 78 30.16 0.0
21 11:35 N 3 10.00 Partly Cloudy SCT027 SCT033 75.4 64.2 68% 77 30.16 0.0
21 11:15 Calm 10.00 Partly Cloudy SCT025 74.7 63.1 67% 30.17 0.0
21 10:55 Calm 10.00 Fair CLR 73.2 63.7 72% 30.17 0.0
21 10:35 E 3 10.00 Partly Cloudy SCT018 72.3 64.2 76% 30.17 0.0
21 10:15 Calm 10.00 Fair CLR 72.3 63.7 74% 30.17 0.0
21 09:55 N 5 10.00 Fair CLR 70.9 64.6 81% 30.17 0.0
21 09:35 N 3 10.00 Fair CLR 71.2 64.8 80% 30.17 0.0
21 09:15 N 3 10.00 Fair CLR 70.5 64.9 83% 30.16 0.0
21 08:55 Calm 10.00 Fair CLR 68.9 64.8 87% 30.17 0.0
21 08:35 Calm 10.00 Fair CLR 67.8 64.4 89% 30.17 0.0
21 08:15 Calm 10.00 Partly Cloudy SCT060 SCT070 66.2 64.4 94% 30.17 0.0
21 07:55 Calm 10.00 Mostly Cloudy SCT060 BKN075 65.8 64.4 95% 30.16 0.0
21 07:35 Calm 10.00 Partly Cloudy SCT090 64.6 63.5 96% 30.16 0.0
21 07:15 Calm 10.00 Partly Cloudy SCT070 64.4 63.3 96% 30.16 0.0
21 06:55 Calm 7.00 Fog/Mist BKN070 63.5 63 65.5 61.9 98% 30.16 0.0
21 06:35 Calm 5.00 Fog/Mist SCT070 62.4 62.1 99% 30.16 0.0
21 06:15 Calm 3.00 Fog/Mist SCT070 62.1 61.7 99% 30.15 0.0
21 05:55 Calm 3.00 Fog/Mist SCT070 62.1 61.7 99% 30.15 0.0
21 05:35 Calm 4.00 Fog/Mist SCT060 62.2 61.9 99% 30.15 0.0
21 05:15 Calm 3.00 Fog/Mist BKN060 62.4 61.9 98% 30.15 0.0
21 04:55 Calm 4.00 Fog/Mist SCT060 63 62.4 98% 30.15 0.0
21 04:35 Calm 10.00 Partly Cloudy SCT060 63.9 63 97% 30.15 0.0
21 04:15 Calm 7.00 Overcast OVC060 64.2 63.7 98% 30.14 0.0
21 03:55 Calm 10.00 Mostly Cloudy BKN060 64.4 63.7 98% 30.14 0.0
21 03:35 Calm 7.00 Fog/Mist SCT060 64 63.5 98% 30.14 0.0
21 03:15 Calm 7.00 Mostly Cloudy BKN060 64.4 63.9 98% 30.14 0.0
21 02:55 Calm 7.00 Fog/Mist BKN060 64.2 63.7 98% 30.15 0.0
21 02:35 Calm 7.00 Fog/Mist SCT060 BKN120 64 63.5 98% 30.15 0.0
21 02:15 Calm 10.00 Mostly Cloudy BKN120 64.8 64 98% 30.15 0.0
21 01:55 Calm 10.00 Mostly Cloudy BKN120 64.8 63.9 97% 30.15 0.0
21 01:35 Calm 7.00 Mostly Cloudy BKN120 64.8 64.2 98% 30.15 0.0
21 01:15 Calm 10.00 Mostly Cloudy BKN120 64.9 64.2 98% 30.15 0.0
21 00:55 Calm 10.00 Overcast OVC110 65.5 64.8 69.8 63.9 98% 30.15 0.0
21 00:35 Calm 7.00 Overcast OVC100 65.3 64.8 98% 30.16 0.0
21 00:15 Calm 7.00 Overcast OVC100 65.5 64.9 98% 30.16 0.0
20 23:55 Calm 10.00 Overcast OVC100 65.7 65.1 98% 30.16 0.0
20 23:35 Calm 7.00 Fog/Mist OVC100 65.5 64.9 98% 30.15 0.0
20 23:15 Calm 7.00 Fog/Mist OVC100 65.1 64.6 98% 30.15 0.0
20 22:55 Calm 7.00 Fog/Mist BKN100 OVC120 64.9 64.4 98% 30.15 0.0
20 22:35 Calm 7.00 Overcast SCT070 BKN100 OVC120 65.3 64.8 98% 30.16 0.0
20 22:15 Calm 10.00 Overcast BKN070 OVC120 65.3 64.8 98% 30.16 0.0
20 21:55 Calm 3.50 Fog/Mist SCT070 BKN120 64.4 63.7 98% 30.16 0.0
20 21:35 Calm 10.00 Fair CLR 65.5 64.6 97% 30.15 0.0
20 21:15 Calm 10.00 Partly Cloudy SCT110 66.4 64.9 95% 30.14 0.0
20 20:55 Calm 10.00 Fair CLR 67.3 65.3 93% 30.13 0.0
20 20:35 Calm 10.00 Fair CLR 67.6 65.7 93% 30.12 0.0
20 20:15 Calm 10.00 Partly Cloudy SCT110 68.9 66.4 92% 30.12 0.0
20 19:55 Calm 10.00 Mostly Cloudy BKN110 69.6 66.2 89% 30.12 0.0
20 19:35 Calm 10.00 Overcast OVC100 69.3 67.1 93% 30.12 0.0
20 19:15 Calm 10.00 Overcast SCT080 OVC095 69.3 65.3 87% 30.12 0.0
20 18:55 Calm 10.00 Overcast OVC070 69.1 64.9 72.5 68.9 87% 30.12 0.0 0.01
20 18:35 Calm 10.00 Overcast OVC070 69.4 65.1 86% 30.12 0.0
20 18:15 Calm 10.00 Overcast OVC070 69.3 66.2 90% 30.13 0.0
20 17:55 Calm 10.00 Overcast SCT048 BKN080 OVC095 69.3 65.3 87% 30.13 0.0 0.01
20 17:35 Calm 10.00 Light Rain SCT034 BKN047 OVC080 69.4 66.2 90% 30.14 0.0 0.01
20 17:15 Calm 10.00 Light Rain SCT055 BKN080 OVC095 71.2 64.6 80% 30.14 0.0
20 16:55 Calm 10.00 Overcast BKN080 OVC090 71.2 63.7 77% 30.15 0.0
20 16:35 Calm 10.00 Overcast OVC090 71.4 63.5 76% 30.15 0.0
20 16:15 Calm 10.00 Overcast OVC090 71.8 63.1 74% 30.14 0.0
20 15:55 Calm 10.00 Overcast OVC090 72 63.9 76% 30.15 0.0
20 15:35 Calm 10.00 Overcast SCT021 OVC090 71.8 63.7 76% 30.15 0.0
20 15:15 Calm 10.00 Overcast SCT021 OVC090 71.4 63.9 77% 30.16 0.0
20 14:55 Calm 10.00 Overcast SCT021 OVC090 71.6 64 77% 30.16 0.0
20 14:35 Calm 10.00 Overcast BKN021 BKN080 OVC090 71.2 62.6 74% 30.16 0.0
20 14:15 Calm 10.00 Overcast SCT020 BKN025 OVC090 71.1 63.7 78% 30.16 0.0
20 13:55 Calm 10.00 Overcast OVC021 70 63.1 79% 30.16 0.0
20 13:35 Calm 10.00 Overcast BKN017 OVC023 70.9 63.7 78% 30.17 0.0
20 13:15 Calm 10.00 Overcast BKN017 OVC090 70.3 64 81% 30.17 0.0
20 12:55 Calm 10.00 Overcast BKN017 BKN048 OVC100 70 63.1 70.2 63.5 79% 30.17 0.0 0.01
20 12:35 N 3 10.00 Overcast BKN015 BKN048 OVC100 69.4 64 83% 30.17 0.0
20 12:15 N 5 10.00 Overcast BKN048 OVC100 69.1 64 84% 30.17 0.0
20 11:55 Calm 10.00 Overcast BKN014 BKN029 OVC048 68.7 64.6 87% 30.17 0.0
20 11:35 NW 5 10.00 Light Rain BKN010 BKN015 OVC100 68.4 64.8 88% 30.17 0.0
20 11:15 Calm 10.00 Overcast SCT010 OVC100 68.4 64.4 87% 30.17 0.0
20 10:55 N 5 10.00 Overcast SCT008 OVC100 67.8 64.6 89% 30.16 0.0
20 10:35 NW 3 10.00 Overcast OVC090 67.1 63.9 89% 30.16 0.0
20 10:15 NW 3 10.00 Overcast OVC090 66.6 63.1 89% 30.16 0.0
20 09:55 NW 5 10.00 Overcast OVC090 66.6 63.3 89% 30.16 0.0 0.01
20 09:35 NW 5 10.00 Overcast OVC090 66.7 63.9 91% 30.15 0.0
20 09:15 NW 3 10.00 Overcast OVC090 66.6 63.7 91% 30.15 0.0
20 08:55 NW 3 10.00 Overcast SCT031 SCT037 OVC090 66.4 64 92% 30.15 0.0 0.01
20 08:35 NW 5 10.00 Light Rain SCT031 BKN060 OVC100 66 63.9 93% 30.15 0.0 0.01
20 08:15 Calm 10.00 Light Rain SCT045 OVC100 64.9 62.4 92% 30.15 0.0
20 07:55 Calm 10.00 Light Rain SCT044 OVC100 64.8 62.6 93% 30.14 0.0
20 07:35 Calm 10.00 Overcast OVC110 64 62.4 95% 30.14 0.0
20 07:15 Calm 10.00 Overcast OVC110 63.9 62.1 94% 30.14 0.0
20 06:55 Calm 10.00 Light Rain SCT050 SCT065 OVC110 63.3 61.7 64.8 62.6 95% 30.14 0.0
20 06:35 Calm 10.00 Light Rain SCT050 SCT060 BKN110 62.8 61.7 96% 30.13 0.0
20 06:15 Calm 10.00 Overcast SCT050 OVC110 63 61.7 96% 30.13 0.0
20 05:55 Calm 10.00 Light Rain BKN050 BKN095 OVC120 63.7 61.2 92% 30.13 0.0
20 05:35 Calm 10.00 Rain BKN050 OVC095 63.7 61.2 92% 30.13 0.0
20 05:15 Calm 10.00 Overcast OVC050 63.5 61.5 93% 30.12 0.0
20 04:55 Calm 10.00 Overcast OVC050 63.5 61 92% 30.12 0.0
20 04:35 Calm 10.00 Overcast OVC050 63.5 60.6 90% 30.12 0.0
20 04:15 Calm 10.00 Overcast BKN050 OVC120 64.2 60.1 87% 30.11 0.0
20 03:35 Calm 10.00 Overcast OVC050 64.2 59.7 85% 30.11 0.0
20 03:15 Calm 10.00 Overcast BKN050 OVC120 64.4 59.7 85% 30.11 0.0
20 02:55 Calm 10.00 Overcast SCT050 BKN100 OVC120 64 60.1 87% 30.11 0.0
20 02:35 SE 3 10.00 Overcast OVC100 64.2 59.7 85% 30.11 0.0
20 02:15 SE 5 10.00 Overcast OVC090 64 59.7 86% 30.1 0.0
20 01:55 SE 3 10.00 Overcast BKN080 OVC090 64 59.4 85% 30.1 0.0
20 01:35 SE 5 10.00 Mostly Cloudy BKN090 64 59.4 85% 30.11 0.0
20 01:15 SE 3 10.00 Partly Cloudy SCT120 64 59.4 85% 30.11 0.0
20 00:55 SE 5 10.00 Mostly Cloudy BKN120 64.4 59.2 74.1 63.7 83% 30.11 0.0
20 00:35 SE 5 10.00 Partly Cloudy SCT120 64 59 84% 30.11 0.0
20 00:15 SE 5 10.00 Fair CLR 64 58.8 83% 30.11 0.0
19 23:55 SE 6 10.00 Fair CLR 64.4 58.6 82% 30.11 0.0
19 23:35 SE 6 10.00 Fair CLR 64.8 58.8 81% 30.11 0.0
19 23:15 E 5 10.00 Fair CLR 65.7 58.8 79% 30.12 0.0
19 22:55 SE 6 10.00 Fair CLR 66 59 78% 30.12 0.0
19 22:35 SE 6 10.00 Fair CLR 65.8 59.2 79% 30.11 0.0
19 22:15 SE 6 10.00 Partly Cloudy SCT075 66.6 59.4 78% 30.11 0.0
19 21:55 E 6 10.00 Partly Cloudy SCT075 SCT085 67.8 59.4 74% 30.11 0.0
19 21:35 SE 5 10.00 Mostly Cloudy SCT085 BKN090 68.4 59.5 74% 30.11 0.0
19 21:15 E 6 10.00 Mostly Cloudy SCT085 BKN090 68.5 60.3 75% 30.1 0.0
19 20:55 SE 5 10.00 Partly Cloudy SCT085 69.4 60.3 73% 30.1 0.0
19 20:35 SE 6 10.00 Mostly Cloudy BKN085 71.1 59.5 67% 30.1 0.0
19 20:15 E 6 10.00 Overcast OVC085 72.3 59.9 65% 30.1 0.0
19 19:55 E 3 10.00 Mostly Cloudy BKN085 72.7 59.7 64% 30.11 0.0
19 19:35 E 5 10.00 Partly Cloudy SCT085 73 59.7 63% 30.11 0.0
19 19:15 E 3 10.00 Fair CLR 73.6 60.3 63% 30.1 0.0
19 18:55 E 3 10.00 Fair CLR 73.9 60.1 79 73.8 62% 30.1 0.0
19 18:35 E 5 10.00 Fair CLR 74.3 59 59% 30.1 0.0
19 18:15 Calm 10.00 Fair CLR 75.6 58.8 56% 78 30.1 0.0
19 17:55 E 5 10.00 Fair CLR 77.2 58.8 53% 79 30.11 0.0
19 17:35 E 6 7.00 Fair with Haze CLR 77.2 59 54% 79 30.11 0.0
19 17:15 SE 6 10.00 Fair CLR 76.8 59.2 55% 79 30.11 0.0
19 16:55 NE 3 10.00 Fair CLR 77.5 58.6 52% 79 30.12 0.0
19 16:35 SE 3 10.00 Fair CLR 77.4 57.7 51% 79 30.12 0.0
19 16:15 SE 5 10.00 Partly Cloudy SCT050 77.7 59.5 54% 79 30.13 0.0
19 15:55 SE 7 10.00 Mostly Cloudy BKN050 77.4 58.1 52% 79 30.13 0.0
19 15:35 SE 7 10.00 Mostly Cloudy BKN050 78.3 58.5 51% 79 30.13 0.0
19 15:15 E 7 10.00 Mostly Cloudy BKN050 76.5 57.4 52% 78 30.14 0.0
19 14:55 SE 6 10.00 Mostly Cloudy BKN050 77.5 57.6 50% 79 30.14 0.0
19 14:35 Calm 10.00 Mostly Cloudy BKN050 77.9 57.4 49% 79 30.15 0.0
19 14:15 Calm 4.00 Mostly Cloudy with Haze SCT047 BKN055 77.4 56.7 49% 79 30.16 0.0
19 13:55 S 7 10.00 Partly Cloudy SCT047 76.8 57.4 51% 79 30.16 0.0
19 13:35 SW 5 10.00 Mostly Cloudy BKN047 76.8 55.9 49% 78 30.17 0.0
19 13:15 SE 6 10.00 Partly Cloudy SCT049 76.1 57.2 52% 78 30.17 0.0
Date Time (cdt) Wind (mph) Vis. (mi.) Weather Sky Cond. Air Dwpt Max. Min. Relative Humidity Wind Chill (°F) Heat Index (°F) altimeter (in) sea level (mb) 1 hr 3 hr 6 hr
6 hour
Temperature (ºF) Pressure Precipitation (in)